Wind_Speed
61 61 43 45 45 43 41 44 45 43 45 45 39 32 36 35 31 20 21 21 20 21 25 18 17 21 22 21 20 19 18 19 19 19 19 20 19 17 18 19 18 20 22 23
42 48 37 40 46 50 49 42 44 42 44 48 45 39 39 40 38 24 24 22 20 21 18 17 20 21 23 24 24 22 22 20 23 23 23 21 20 17 18 19 21 23 22 22
64 41 45 45 48 52 52 45 43 44 47 49 49 48 43 42 42 30 28 26 23 21 21 20 19 18 19 22 26 27 27 26 25 26 24 22 19 18 20 22 22 22 22 23
56 54 55 53 34 40 43 52 47 47 50 51 52 55 45 43 41 36 31 28 25 25 26 26 22 19 20 22 23 26 30 29 29 28 25 25 24 22 24 24 24 26 26 28
58 54 54 60 40 42 42 47 48 51 55 56 56 61 52 47 45 39 28 31 32 30 29 26 23 19 19 23 22 21 22 22 25 25 27 27 26 26 28 27 28 29 30 31
56 55 62 52 45 48 44 47 45 49 52 60 57 61 64 49 46 38 35 33 34 34 31 27 27 21 19 22 21 23 22 22 21 20 21 24 27 30 30 31 31 33 34 35
50 54 56 57 54 55 45 39 37 47 53 59 60 65 67 54 47 39 40 38 35 34 31 28 27 25 22 21 24 23 23 22 21 20 18 18 22 24 26 29 31 33 37 40
50 53 50 52 58 55 53 50 51 49 53 54 51 56 65 63 46 38 41 37 36 32 32 30 29 27 26 25 25 25 24 27 26 23 22 22 23 26 28 31 34 38 41 44
51 49 47 46 56 67 67 65 48 50 51 55 60 56 58 63 52 45 40 38 37 36 36 31 30 30 29 30 29 29 28 28 28 28 29 29 30 32 34 37 40 42 44 45
48 47 48 51 52 59 69 66 68 62 57 56 59 57 57 53 52 44 45 43 38 37 35 33 33 33 34 33 34 34 32 33 32 34 34 36 38 39 41 43 43 44 46 47
51 54 52 53 56 53 55 64 68 66 64 63 60 59 50 50 46 46 44 44 41 40 37 38 39 37 35 35 35 37 38 38 38 38 40 41 43 44 45 46 46 47 49 50
53 54 56 58 53 54 56 61 62 68 66 67 68 62 54 52 49 46 46 45 44 41 39 37 35 36 37 37 37 39 40 41 42 43 46 48 48 48 48 47 47 48 48 50
52 57 53 56 52 58 58 57 58 56 61 65 61 63 51 50 48 46 47 45 41 39 38 39 39 40 40 41 41 42 43 45 47 49 50 51 52 52 51 51 51 51 52 51
55 54 61 63 59 57 54 56 60 56 56 47 56 47 52 47 46 43 45 41 43 44 43 44 43 42 42 43 44 47 48 49 50 52 53 53 54 54 55 56 56 56 56 56
60 63 63 64 60 64 66 62 58 60 57 58 47 48 44 42 46 46 45 46 46 45 45 44 44 44 46 47 49 51 52 52 53 53 53 54 55 56 55 57 59 59 59 59
55 54 56 67 65 72 74 71 64 64 55 60 52 52 47 49 48 48 47 50 50 46 46 45 45 48 49 50 53 54 56 57 58 58 58 57 56 56 58 58 60 58 56 53
54 56 53 61 66 80 85 76 71 67 61 57 54 39 42 48 49 48 50 51 52 50 49 50 51 51 50 50 50 50 51 52 51 49 50 52 53 53 53 54 53 53 54 55
57 55 56 52 56 79 75 72 71 72 67 70 68 51 50 46 43 47 52 51 47 49 52 50 50 49 47 48 48 48 47 46 46 47 46 46 46 47 49 50 52 53 52 52
53 54 59 65 68 55 69 66 52 49 47 53 59 58 54 50 51 49 54 54 49 46 48 50 51 46 47 49 50 48 45 45 44 41 41 42 44 47 49 50 49 48 46 44
55 59 57 62 75 82 64 55 58 71 70 55 53 59 59 55 55 50 49 56 55 52 51 49 50 50 49 48 44 41 41 38 36 37 39 42 43 43 43 41 41 41 42 43
68 61 51 63 75 80 51 62 64 75 47 43 55 53 54 57 52 44 42 43 42 43 46 49 48 44 44 40 40 39 38 36 37 39 40 40 41 38 36 37 38 39 39 38
66 54 53 57 71 65 61 65 69 37 47 51 50 44 51 51 46 48 48 45 47 48 49 49 49 48 43 42 42 42 39 39 36 40 38 38 37 37 38 39 37 39 39 38
64 47 46 42 49 51 55 55 55 53 50 45 47 42 37 40 40 41 50 48 49 49 49 50 49 45 44 43 41 41 39 37 38 38 38 39 39 40 40 38 37 37 36 37
57 39 40 51 44 43 51 50 49 51 48 38 35 41 38 36 36 38 45 51 51 50 46 44 41 42 44 42 42 41 36 37 37 36 37 39 39 38 36 34 34 35 36 39
65 48 36 47 46 37 42 52 44 53 52 48 51 46 40 37 38 40 43 43 48 50 48 46 44 47 46 45 42 40 38 39 38 38 39 40 40 39 38 38 39 41 42 43
63 40 37 46 45 46 39 36 38 36 36 42 43 43 40 42 38 40 39 42 42 48 46 46 48 49 48 45 44 42 41 42 41 41 41 42 44 44 43 44 45 46 47 49
Wind_Direction
214 222 232 230 231 231 232 235 236 239 244 245 239 226 235 242 240 233 235 238 237 228 236 241 245 246 243 243 245 246 246 251 255 252 252 252 254 257 258 260 263 261 262 265
216 216 224 229 237 235 231 235 236 242 247 247 242 226 231 238 246 235 234 241 233 228 234 231 232 241 242 240 242 246 244 245 249 249 250 254 256 257 258 259 258 259 268 274
236 219 214 220 226 228 232 234 240 246 245 248 246 237 230 237 245 242 242 239 237 237 239 233 236 240 248 249 240 238 244 245 248 254 257 257 261 259 257 259 267 272 272 272
234 240 233 230 225 232 233 240 245 246 244 245 248 243 234 237 244 243 240 241 236 236 242 248 248 247 247 248 251 252 243 242 246 250 257 260 260 258 257 261 267 271 274 278
235 235 241 244 238 249 240 238 240 243 243 241 241 246 228 236 239 242 237 239 238 236 236 243 248 244 242 249 254 260 260 262 261 260 254 257 260 260 261 265 268 272 275 279
225 227 231 237 239 241 236 229 233 240 244 242 238 242 236 229 238 238 238 239 241 242 239 235 242 239 245 249 250 257 259 256 254 257 263 259 258 260 263 266 270 273 277 280
230 228 225 227 225 226 223 220 232 241 243 243 240 239 238 232 234 236 237 243 243 245 245 242 241 246 245 247 242 247 253 261 262 263 258 254 259 261 260 264 268 271 272 274
231 233 229 233 231 226 227 246 247 255 255 249 260 246 243 246 238 243 240 242 246 248 248 249 248 250 252 251 249 246 248 254 260 264 265 264 269 262 259 257 259 263 271 276
236 238 241 236 236 229 232 237 244 250 255 251 252 244 242 244 240 240 242 239 243 249 251 250 252 252 248 254 254 250 248 253 258 260 265 269 268 263 262 263 263 266 272 278
243 244 245 243 240 238 238 242 246 244 247 251 252 251 247 245 247 238 243 243 243 245 249 251 250 249 253 256 255 257 259 258 256 259 261 262 266 268 268 268 272 274 277 281
239 245 248 246 245 249 250 245 245 247 245 248 249 251 250 252 254 236 239 243 244 248 249 248 249 252 255 255 256 258 261 260 262 263 265 266 266 267 270 272 274 275 276 278
238 239 244 249 247 246 243 244 248 247 251 255 253 256 265 264 270 256 238 241 241 244 248 249 251 252 253 254 256 258 259 261 265 270 271 272 274 276 278 279 280 281 283 284
238 238 244 246 244 246 241 240 245 249 247 248 250 252 259 264 270 261 241 239 241 243 246 246 245 248 252 256 258 260 261 263 264 269 273 274 274 277 280 282 284 287 289 289
229 229 230 244 253 248 248 242 243 244 244 253 251 257 257 258 264 262 247 237 236 237 236 239 243 247 251 254 257 259 261 263 267 271 275 277 278 279 282 284 286 287 288 289
235 236 235 243 242 239 247 240 242 246 248 242 255 248 250 254 257 259 251 239 237 237 242 245 245 247 249 250 253 256 260 264 268 271 274 276 276 278 282 284 284 285 286 288
224 228 233 235 233 233 238 240 237 235 237 243 245 247 242 240 247 252 249 243 241 244 246 245 246 249 250 252 253 256 259 262 265 269 272 274 276 277 279 280 281 281 285 287
227 225 229 235 232 228 230 236 243 243 240 240 234 243 239 244 247 248 251 246 247 250 251 250 249 248 250 255 258 260 264 266 268 271 274 275 276 278 280 282 286 289 290 290
228 228 229 232 240 237 231 235 237 246 243 244 243 234 244 249 252 248 244 243 239 240 246 248 249 252 259 260 260 261 264 267 268 269 272 278 283 286 288 288 288 289 291 294
222 229 232 232 228 235 236 226 226 242 237 236 236 230 238 247 252 244 239 242 241 237 240 246 252 260 259 260 263 265 265 264 266 274 281 284 285 285 288 290 294 296 296 292
215 218 223 223 231 233 232 230 228 241 241 234 245 237 241 249 253 236 243 241 240 244 248 253 257 259 263 264 265 264 265 269 273 274 277 279 283 287 292 293 290 289 290 292
237 227 243 226 229 236 225 217 229 242 238 238 248 241 240 243 250 241 246 246 246 247 248 250 253 255 257 260 261 261 264 268 271 274 279 285 289 289 288 287 288 288 289 287
239 249 247 232 237 242 226 226 235 240 250 247 249 247 241 248 243 242 243 241 245 244 246 249 252 251 252 251 256 261 265 268 271 277 280 280 281 283 285 287 287 287 285 287
233 230 235 247 242 241 239 238 237 242 243 249 249 238 237 239 234 236 238 239 240 242 244 247 248 249 249 249 255 257 261 269 274 276 279 281 280 279 283 282 282 283 287 289
231 240 241 236 230 224 240 243 243 244 240 236 252 258 250 239 234 240 242 237 233 238 241 243 243 243 247 248 251 255 262 269 270 274 277 277 276 276 273 276 281 283 285 287
234 245 241 227 235 232 237 243 245 245 247 254 254 257 245 243 241 242 238 242 240 236 236 238 238 245 243 247 251 255 260 261 266 268 270 272 271 270 270 273 275 278 282 285
233 236 236 223 231 234 232 233 242 241 247 249 241 247 230 225 234 236 241 239 230 229 235 237 241 242 245 249 251 255 256 258 260 262 263 265 269 268 271 275 279 282 284 286
Height
5744 5754 5758 5768 5774 5781 5788 5793 5797 5803 5807 5809 5815 5822 5820 5823 5828 5835 5839 5840 5842 5844 5844 5849 5850 5852 5854 5855 5854 5856 5856 5857 5858 5858 5857 5857 5858 5859 5859 5859 5858 5857 5857 5858
5736 5747 5758 5759 5767 5773 5779 5784 5789 5795 5799 5802 5807 5814 5816 5817 5820 5830 5833 5837 5837 5839 5842 5844 5845 5847 5848 5850 5852 5852 5852 5853 5854 5853 5854 5854 5854 5855 5855 5855 5854 5853 5853 5853
5732 5742 5746 5749 5756 5763 5771 5777 5782 5786 5791 5793 5798 5803 5810 5813 5815 5823 5828 5832 5834 5836 5838 5840 5843 5843 5843 5844 5846 5847 5847 5848 5849 5850 5851 5851 5852 5852 5851 5850 5849 5849 5849 5848
5720 5728 5734 5740 5749 5757 5762 5769 5772 5775 5780 5786 5789 5791 5804 5808 5811 5816 5822 5827 5831 5831 5832 5834 5837 5839 5840 5838 5838 5841 5842 5842 5844 5845 5846 5847 5847 5848 5846 5847 5846 5844 5843 5843
5720 5725 5731 5734 5750 5747 5756 5759 5761 5765 5768 5774 5780 5780 5794 5801 5805 5811 5819 5821 5824 5826 5826 5827 5831 5833 5835 5834 5834 5836 5838 5839 5840 5841 5842 5841 5842 5843 5842 5842 5841 5841 5838 5837
5702 5713 5715 5732 5737 5741 5746 5748 5751 5756 5759 5758 5774 5774 5776 5794 5800 5806 5810 5814 5817 5818 5822 5823 5824 5826 5829 5831 5832 5832 5832 5834 5836 5837 5837 5836 5836 5836 5836 5835 5834 5833 5833 5831
5699 5703 5712 5720 5724 5731 5735 5740 5743 5745 5744 5757 5761 5761 5772 5787 5794 5800 5802 5804 5810 5813 5816 5819 5819 5820 5822 5824 5827 5827 5828 5829 5830 5831 5832 5831 5831 5830 5830 5828 5827 5826 5824 5822
5685 5689 5704 5715 5718 5728 5734 5734 5737 5739 5740 5752 5748 5756 5767 5775 5791 5795 5797 5799 5802 5807 5809 5812 5814 5815 5815 5818 5820 5821 5823 5824 5823 5824 5824 5824 5825 5824 5823 5822 5819 5818 5816 5813
5679 5687 5696 5706 5711 5717 5719 5716 5735 5729 5731 5734 5737 5752 5757 5762 5780 5787 5791 5792 5795 5798 5800 5804 5807 5809 5811 5811 5812 5814 5815 5817 5818 5817 5816 5816 5815 5815 5815 5813 5811 5810 5808 5805
5669 5678 5686 5693 5697 5700 5706 5724 5715 5718 5724 5726 5732 5738 5748 5759 5768 5778 5781 5785 5787 5789 5793 5796 5799 5801 5803 5804 5805 5807 5808 5808 5809 5810 5809 5808 5806 5805 5804 5802 5802 5800 5798 5795
5663 5664 5676 5675 5681 5696 5702 5698 5705 5714 5716 5719 5724 5727 5744 5749 5755 5765 5772 5775 5777 5780 5784 5787 5789 5792 5795 5797 5798 5799 5799 5800 5800 5800 5800 5800 5798 5797 5795 5794 5793 5790 5787 5784
5651 5651 5656 5661 5676 5682 5686 5689 5696 5696 5708 5715 5717 5721 5736 5741 5745 5753 5761 5764 5767 5770 5774 5777 5779 5782 5784 5786 5788 5789 5789 5789 5789 5789 5788 5788 5788 5787 5785 5784 5783 5781 5778 5775
5644 5637 5647 5651 5658 5664 5670 5684 5688 5692 5697 5697 5708 5718 5731 5733 5736 5739 5748 5753 5758 5761 5765 5767 5769 5770 5773 5775 5776 5777 5778 5778 5778 5778 5778 5777 5775 5774 5773 5772 5770 5769 5767 5764
5624 5630 5633 5640 5655 5658 5663 5672 5677 5678 5681 5695 5693 5716 5717 5723 5725 5728 5734 5742 5747 5750 5753 5755 5758 5760 5763 5764 5765 5766 5766 5766 5766 5766 5765 5765 5765 5764 5762 5761 5759 5757 5754 5751
5607 5611 5625 5635 5643 5647 5651 5659 5664 5667 5679 5675 5697 5695 5707 5714 5714 5717 5721 5728 5734 5739 5742 5745 5747 5750 5753 5754 5755 5755 5755 5755 5754 5754 5753 5753 5753 5752 5750 5749 5747 5744 5741 5738
5598 5604 5609 5614 5628 5629 5633 5642 5649 5654 5666 5667 5682 5682 5698 5699 5701 5704 5709 5714 5721 5727 5730 5735 5737 5740 5742 5742 5743 5743 5743 5742 5742 5742 5742 5741 5739 5738 5736 5734 5732 5730 5727 5724
5589 5595 5599 5600 5614 5613 5608 5624 5634 5646 5657 5662 5665 5682 5684 5686 5690 5695 5698 5703 5709 5714 5718 5722 5725 5726 5728 5730 5731 5731 5731 5730 5730 5730 5729 5728 5727 5725 5724 5723 5721 5718 5715 5712
5580 5587 5591 5594 5599 5585 5602 5614 5623 5630 5644 5651 5656 5666 5672 5674 5678 5679 5684 5687 5693 5698 5702 5707 5711 5713 5716 5718 5718 5718 5718 5719 5719 5718 5718 5717 5715 5714 5712 5710 5708 5705 5703 5700
5571 5578 5576 5577 5580 5582 5592 5605 5619 5620 5631 5639 5642 5655 5659 5663 5661 5664 5674 5679 5683 5685 5690 5694 5697 5702 5704 5705 5706 5707 5707 5707 5707 5707 5706 5705 5703 5701 5700 5698 5696 5693 5690 5687
5558 5562 5562 5568 5562 5557 5588 5614 5611 5609 5600 5625 5634 5643 5648 5650 5644 5662 5662 5666 5669 5673 5678 5682 5686 5688 5690 5691 5693 5694 5695 5696 5694 5694 5693 5692 5690 5689 5687 5686 5683 5681 5679 5676
5543 5549 5551 5555 5552 5552 5581 5589 5593 5586 5608 5627 5624 5632 5635 5630 5641 5657 5654 5655 5659 5662 5666 5669 5672 5675 5677 5680 5681 5682 5683 5681 5681 5679 5680 5680 5679 5676 5674 5673 5672 5670 5668 5666
5536 5540 5546 5552 5551 5554 5571 5573 5575 5596 5610 5613 5615 5618 5617 5622 5631 5632 5639 5642 5645 5650 5653 5656 5658 5661 5664 5666 5667 5669 5668 5668 5667 5668 5667 5667 5666 5665 5664 5663 5661 5660 5658 5656
5525 5532 5537 5535 5543 5560 5564 5569 5575 5582 5590 5597 5600 5602 5603 5607 5614 5619 5624 5627 5631 5635 5638 5641 5644 5649 5651 5653 5654 5654 5655 5656 5656 5653 5654 5653 5653 5653 5653 5651 5650 5649 5647 5645
5518 5521 5519 5526 5538 5543 5551 5560 5566 5571 5579 5582 5585 5588 5591 5597 5600 5604 5609 5613 5617 5620 5625 5630 5633 5635 5637 5639 5641 5643 5642 5642 5642 5642 5642 5643 5642 5641 5641 5640 5639 5637 5635 5634
5504 5506 5512 5520 5527 5532 5540 5545 5553 5556 5560 5566 5571 5575 5578 5584 5588 5592 5596 5601 5605 5610 5613 5615 5621 5624 5626 5628 5630 5629 5629 5630 5630 5630 5631 5631 5631 5630 5629 5628 5627 5625 5623 5620
5493 5498 5503 5512 5516 5521 5528 5534 5538 5541 5548 5553 5558 5561 5565 5571 5576 5581 5585 5590 5593 5595 5599 5605 5608 5612 5615 5615 5617 5618 5618 5618 5618 5618 5618 5618 5619 5619 5618 5617 5615 5613 5610 5608